User: anonymous   Login
Location: Augustenthal
(51.7167°N, 10.2833°E)
Time: 23:56:49
(UTC+00:00)
Language:

Cosmos 1151 Rocket - Orbit

View from above orbital plane
View from above orbital plane
View from above satellite
View from above satellite

Ground track
Ground track

The orbit data is extracted from the following two-line orbital elements,

1 11672U 80005B   21217.35995451  .00000090  00000-0  70629-5 0  9992
2 11672  82.5146  93.7901 0016367 348.4983  11.5857 14.88057967226851
Epoch (UTC): 05 August 2021 08:38:20
Eccentricity: 0.0016367
inclination: 82.5146°
perigee height: 592 km
apogee height: 615 km
right ascension of ascending node: 93.7901°
argument of perigee: 348.4983°
revolutions per day: 14.88057967
mean anomaly at epoch: 11.5857°
orbit number at epoch: 22685

The dashed part of the orbit path shows where the satellite is in the earth's shadow,  

DLR